Weather in Astakhovo

Russia / Smolensk Oblast     55°25′38″N   34°55′26″E
temp.,
°C
wind,
m/s
gust,
m/s
humid.,
%
clouds,
%
prec.,
mm/h
press.,
hPa
HPBL,
m
18 may, tue
tue1800:00+18ese614843 0.0 1006395
03:00+17se6138685 0.0 1006332
06:00+17se613886 0.0 1005336
09:00+21se6107314 0.0 1005523
12:00+25se69555 0.0 10051207
15:00+25se7135024 0.0 10051891
18:00+23ese61260100 0.0 1004470
21:00+20ese6146495 0.1 1004502
19 may, wed
wed1900:00+17se511925 0.3 1004297
03:00+14ese379594 0.4 1004145
06:00+14se5119397 0.0 1004485
09:00+17sse7108154 0.0 1005810
12:00+20sse796782 0.3 10061470
15:00+20sse696692 0.6 10061440
18:00+19sse4774100 0.4 1006828
21:00+15se349099 0.9 100661
20 may, thu
thu2000:00+13ese349499 0.4 100568
03:00+13ese239389 0.5 100438
06:00+14e51292100 0.1 1002455
09:00+15se8107876 0.3 10021050
12:00+13se71384100 0.1 1003844
15:00+12se61290100 1.6 1002732
18:00+13se5895100 0.8 1002549
21:00+12sw4796100 1.5 1004359
21 may, fri
fri2100:00+10w61096100 0.4 1007672
03:00+9wnw61294100 1.0 1009724
06:00+9nw61192100 0.0 1011632
09:00+12nw6978100 0.0 1013801
12:00+15wnw5763100 0.0 10141528
15:00+17wnw4551100 0.1 10141677
18:00+17wnw356199 0.0 1014506
21:00+12sw3369100 0.0 101621
22 may, sat
sat2200:00+9wnw3380100 0.0 101739
03:00+8nw228081 0.0 101812
06:00+9nnw11790 0.0 101936
09:00+14ne11620 0.0 1019402
12:00+18sse245310 0.0 10181454
15:00+19sse4452100 0.0 10171893
18:00+16sse357187 0.0 1017127
21:00+12sse478485 0.0 1017108